User: anonymous   Login
Location: Unspecified
(0.0000°N, 0.0000°E)
Time: 08:56:11
(UTC+00:00)
Language:

OBJECT AX - Orbit

View from above orbital plane
View from above orbital plane
View from above satellite
View from above satellite

Ground track
Ground track

The orbit is defined by the following mean orbital elements,

1 61780U          26145.61129720 +.00000000 +00000-0 +64896-3 0 00007
2 61780  97.2969  21.1931 0007772  29.2818 330.8871 15.56678439    00
Epoch (UTC): 25 May 2026 14:40:16
Eccentricity: 0.0007772
inclination: 97.2969°
perigee height: 392 km
apogee height: 403 km
right ascension of ascending node: 21.1931°
argument of perigee: 29.2818°
revolutions per day: 15.56678439
mean anomaly at epoch: 330.8871°

The dashed part of the orbit path shows where the satellite is in the earth's shadow,  

DLR